Location: Unspecified
(43.7500°N, 0.0000°E)
Time: 03:59:17
(UTC+00:00)

IRS-P2 Rocket - Visible Passes

Search period start: 04 April 2026 00:00
Search period end: 14 April 2026 00:00
Orbit: 792 x 876 km, 98.8° (Epoch: 29 March)

Date Brightness Start Highest point End Pass type
(mag) Time Alt. Az. Time Alt. Az. Time Alt. Az.
4 Apr 5.3 21:19:38 44° NE 21:19:38 44° NE 21:23:49 10° N visible
4 Apr 6.8 23:01:16 19° WNW 23:01:16 19° WNW 23:03:29 10° NW visible
5 Apr 5.5 21:02:40 35° NE 21:02:40 35° NE 21:06:56 10° N visible
5 Apr 6.4 22:44:18 26° WNW 22:44:18 26° WNW 22:47:13 10° NNW visible
6 Apr 5.8 20:45:41 27° ENE 20:45:41 27° ENE 20:49:57 10° N visible
6 Apr 6.0 22:27:20 35° WNW 22:27:20 35° WNW 22:30:48 10° NNW visible
7 Apr 6.1 20:28:43 20° ENE 20:29:06 20° ENE 20:32:49 10° NNE visible
7 Apr 5.5 22:10:22 46° NW 22:10:22 46° NW 22:14:15 10° NNW visible
8 Apr 6.4 20:11:45 14° ENE 20:12:39 15° ENE 20:15:26 10° NNE visible
8 Apr 5.1 21:53:24 58° NNW 21:53:24 58° NNW 21:57:38 10° NNW visible
9 Apr 6.7 19:55:19 10° ENE 19:56:14 10° NE 19:57:10 10° NE visible
9 Apr 4.9 21:36:25 59° NNE 21:36:25 59° NNE 21:40:54 10° N visible
9 Apr 7.0 23:18:04 14° WNW 23:18:04 14° WNW 23:19:43 10° NW visible
10 Apr 5.0 21:19:27 48° NE 21:19:27 48° NE 21:24:06 10° N visible
10 Apr 6.7 23:01:06 20° WNW 23:01:06 20° WNW 23:03:45 10° NW visible
11 Apr 5.4 21:02:28 36° ENE 21:02:28 36° ENE 21:07:13 10° N visible
11 Apr 6.2 22:44:07 28° WNW 22:44:07 28° WNW 22:47:30 10° NW visible
12 Apr 5.8 20:45:30 26° ENE 20:45:55 26° ENE 20:50:14 10° N visible
12 Apr 5.7 22:27:09 39° WNW 22:27:09 39° WNW 22:31:05 10° NNW visible
13 Apr 6.1 20:28:32 19° ENE 20:29:26 20° ENE 20:33:05 10° NNE visible
13 Apr 5.2 22:10:11 54° WNW 22:10:11 54° WNW 22:14:33 10° NNW visible
